Вернуться в каталог

BREEZE-M DEB

TANK

АктивенHEO
NORAD 37808·DEBRIS·🇷🇺 Russia

Запущен Sep 20, 2011 с Baikonur Cosmodrome

Loading…

Ближайшие Пролёты (ближайшие 24 часа)

TLE

СвежийSource: Space-Track

Эпоха: Sep 14, 2026, 12:50 UTC

1 37808U 11048C   26257.53512418 -.00000065  00000-0  36893-2 0  9994
2 37808  48.1078  36.7028 7011892 221.6152  55.7947  2.28729627124053

Отслеживайте BREEZE-M DEB в реальном времени с AllMySat

Download on the App Store